Location: Yucca Valley
(34.1140°N, 116.4310°W)
Time: 05:06:59
(UTC-07:00)

Daily predictions for brighter satellites

Satellite Brightness Start Highest point End
(mag) Time Altitude Azimuth Time Altitude Azimuth Time Altitude Azimuth
Cosmos 2344 4.1 03:16:59 53° NE 03:16:59 53° NE 03:23:09 10° NNE
Cosmos 2333 Rocket 3.7 03:32:24 10° N 03:37:30 33° ENE 03:42:33 10° SE
Okean O Rocket 4.3 03:36:36 10° NE 03:37:51 17° NE 03:37:51 17° NE
Lacrosse 5 3.4 03:57:13 31° NE 03:57:13 31° NE 03:59:50 10° NE
USA 215 3.7 03:51:24 10° SE 03:56:09 52° SE 03:56:09 52° SE
CZ-4B R/B 4.2 03:56:33 10° NNE 04:01:42 42° E 04:02:41 39° SE
Cosmos 2237 Rocket 3.2 03:56:54 10° N 04:02:15 42° ENE 04:07:33 10° SE
ATLAS 5 CENTAUR R/B 3.5 04:01:48 10° NNW 04:07:36 43° NE 04:13:44 10° SE
NOSS 3-2 (C) 4.4 04:08:12 10° NNW 04:15:46 61° ENE 04:23:47 10° SE
Cosmos 1980 4.0 04:10:28 10° NNW 04:16:07 63° ENE 04:21:43 10° SSE
ADEOS II 4.0 04:12:23 10° NE 04:16:50 27° E 04:21:14 10° SSE
ADEOS Rocket 4.0 04:10:36 10° NNE 04:17:20 48° E 04:23:22 10° S
Centaur D-1A AC-35 4.2 04:19:37 21° SSE 04:19:37 21° SSE 04:21:23 10° ESE
Meteor 1-13 Rocket 4.3 04:20:25 68° NNW 04:20:25 68° NNW 04:25:27 10° N
RESURS DK-1 4.1 04:21:58 28° NNE 04:21:58 28° NNE 04:23:59 10° NNE
SL-16 R/B 4.2 04:17:02 10° N 04:21:47 27° ENE 04:26:31 10° ESE
Cosmos 1346 Rocket 4.0 04:26:51 41° ENE 04:26:51 41° ENE 04:29:59 10° NNE
OTV 4 3.8 04:32:39 11° E 04:32:39 11° E 04:32:50 10° E
Cosmos 2227 Rocket 2.6 04:31:28 49° NNW 04:31:28 49° NNW 04:36:07 10° NNE
Cosmos 1727 Rocket 3.8 04:30:48 68° WSW 04:31:08 69° W 04:37:26 10° N
Gbstr 26 Del rocket 4.3 04:28:27 40° NW 04:31:37 83° SW 04:39:47 10° SE
Cosmos 1680 Rocket 3.6 04:26:34 10° NNW 04:31:52 73° ENE 04:37:04 10° SSE
CZ-2D R/B 4.3 04:29:44 10° NNW 04:30:28 13° NNW 04:30:28 13° NNW
NOSS 3-4 (A) 3.9 04:35:45 43° NW 04:35:45 43° NW 04:41:50 10° NNE
NOSS 3-4 (C) 3.9 04:35:50 44° NW 04:35:50 44° NW 04:41:57 10° NNE
Cosmos 2297 Rocket 2.1 04:39:40 64° W 04:39:52 65° WNW 04:45:30 10° NNE
Cosmos 2219 Rocket 3.9 04:44:31 18° S 04:44:31 18° S 04:45:58 10° S
FALCON 9 R/B 3.5 04:40:19 32° SSW 04:43:14 52° SE 05:01:52 10° ENE
Okean-O 3.7 04:39:36 10° NNE 04:43:50 43° E 04:48:02 10° S
Cosmos 2058 Rocket 4.2 04:42:29 10° N 04:46:39 43° E 04:50:47 10° SSE
Cosmos 2298 Rocket 4.1 04:45:56 28° S 04:48:45 76° ESE 04:54:04 10° NNE
Cosmos 1459 Rocket 4.4 04:44:09 10° N 04:50:29 66° E 04:56:43 10° SSE
IRS-1C Rocket 4.5 04:52:35 10° N 04:57:31 42° WNW 04:57:35 42° WNW
Thor Agena Rocket 3.6 04:53:18 10° SSE 04:58:35 80° ENE 05:03:53 10° N
CZ-4B DEB 4.2 04:55:01 10° N 05:00:23 57° WNW 05:02:41 33° SW
NOSS 0 Rocket 4.1 04:54:47 10° NW 05:00:40 45° WSW 05:06:31 10° S
Cosmos 2150 Rocket 3.9 04:59:41 20° SSW 05:03:16 90° SSW 05:08:26 10° NNE
Cosmos 1025 Rocket 4.1 05:04:57 28° NW 05:04:57 28° NW 05:07:36 10° NNW
CZ-4B R/B 3.6 05:01:51 10° N 05:05:47 39° WNW 05:05:47 39° WNW
GOES 2 Rocket 4.4 05:04:23 33° SW 05:06:54 53° S 05:14:24 10° ESE
Meteor 1-31 Rocket 4.0 05:06:15 10° NNE 05:10:00 43° E 05:13:44 10° S
Meteor 2-15 4.5 05:06:42 10° S 05:12:43 80° E 05:18:47 10° N
Meteor 1-15 Rocket 4.2 05:07:31 10° N 05:13:07 88° E 05:18:45 10° S
Cosmos 1626 Rocket 4.3 05:11:00 10° S 05:15:16 53° E 05:19:32 10° NNE
Okean O Rocket 3.2 05:13:12 10° NNW 05:15:19 19° NW 05:15:19 19° NW
Okean 2 3.7 05:15:43 37° WSW 05:16:43 44° W 05:20:42 10° N
Cosmos 2098 Rocket 3.6 05:16:38 10° N 05:20:42 65° E 05:25:54 10° SSE
Cosmos 2333 Rocket 2.9 05:16:48 10° NW 05:21:36 29° WSW 05:26:22 10° SSW
Cosmos 1606 Rocket 3.9 05:18:12 10° NNW 05:22:16 38° W 05:26:16 10° SSW
Cosmos 1515 4.2 05:22:42 10° S 05:26:28 60° E 05:30:15 10° NNE
DELTA 2 R/B (1) 3.8 05:23:27 25° W 05:26:36 60° NNW 05:32:08 10° ENE
MOS 1 Rocket 3.5 05:22:24 10° NNE 05:27:17 83° ESE 05:32:27 10° S
Feng Yun 1-1 Rocket 4.2 05:22:17 10° N 05:27:56 72° WNW 05:33:43 10° SSW
Tiangong 1 3.2 05:27:24 14° NNW 05:28:30 16° N 05:30:31 10° NE
NOSS 3-2 (A) 4.4 05:21:27 10° NW 05:28:31 40° WSW 05:35:56 10° S
Delta 2 Rocket 3.0 05:27:47 28° WNW 05:29:39 80° N 05:33:09 10° E
CZ-3A R/B 3.7 05:24:24 15° WSW 05:30:55 27° SSW 05:34:09 10° SE
Cosmos 1666 3.3 05:28:13 10° NNW 05:31:43 33° W 05:35:10 10° SSW
COBE Rocket 3.7 05:27:01 10° N 05:31:49 89° WNW 05:36:28 10° SSW
Meteor 2-15 Rocket 4.4 05:26:10 10° S 05:32:14 83° W 05:38:20 10° N
Cosmos 1726 Rocket 4.1 05:29:17 10° NNW 05:33:15 34° W 05:37:10 10° SSW
Cosmos 1898 Rocket 3.9 05:30:03 15° SW 05:34:03 41° WNW 05:39:04 10° N
Lacrosse 5 3.7 05:36:26 12° WNW 05:38:25 15° NNW 05:41:18 10° N
Cosmos 1602 Rocket 3.5 05:33:59 10° S 05:38:26 79° W 05:42:52 10° N
Cosmos 1340 4.1 05:38:23 10° SSE 05:41:56 41° E 05:45:32 10° NNE
CZ-4B R/B 4.4 05:37:55 10° NNW 05:41:57 22° WNW 05:44:34 15° WSW
Cosmos 2061 Rocket 4.3 05:37:16 10° NNW 05:43:15 46° W 05:49:17 10° SSW
Hubble Space Telescope 2.9 05:43:17 11° SW 05:44:41 13° SSW 05:46:29 10° S
Cosmos 2237 Rocket 3.3 05:41:48 10° NW 05:45:55 21° W 05:50:02 10° SSW
Cosmos 2100 Rocket 4.4 05:40:29 10° NNW 05:46:11 38° W 05:51:55 10° SSW
Cosmos 1802 Rocket 4.1 05:40:40 10° NNW 05:46:33 49° W 05:52:23 10° SSW
Cosmos 292 Rocket 4.3 05:42:23 10° NW 05:46:49 36° W 05:51:12 10° SSW
Cosmos 2227 4.2 05:41:26 10° SSW 05:47:10 74° WNW 05:52:57 10° NNE
USA 129 1.4 05:45:45 10° S 05:47:44 58° WSW 05:49:37 10° NNW
Cosmos 1937 Rocket 3.9 05:42:58 10° SW 05:47:54 43° WNW 05:52:55 10° N
ATLAS 5 CENTAUR R/B 3.2 05:46:50 10° NW 05:52:13 31° WSW 05:57:52 10° S
Centaur D-1AR AC-36 3.5 05:51:47 10° SW 05:53:48 14° S 05:55:39 10° SSE
ADEOS II 2.9 05:51:55 10° N 05:56:28 30° WNW 06:01:00 10° SW
NOAA 6 4.0 05:51:20 10° N 05:56:31 72° WNW 06:01:40 10° SSW
Delta 142 4.4 05:53:09 13° WSW 05:56:43 34° S 06:00:26 10° SE
Cosmos 1725 Rocket 4.0 05:52:44 10° N 05:59:01 74° W 06:05:13 10° S
NOSS 2-2 (D) 3.9 05:57:00 10° SW 06:00:52 42° NW 06:05:11 10° NNE
ADEOS Rocket 4.2 05:56:44 10° N 06:02:20 26° WNW 06:07:31 10° WSW
Cosmos 2228 3.9 06:00:43 10° NNW 06:04:31 29° W 06:08:16 10° SSW
CENTAUR R/B 3.2 05:56:41 10° NNW 06:04:43 89° ENE 06:13:06 10° SSE
OTV 4 1.6 06:03:32 11° W 06:05:37 24° SSW 06:07:54 10° SSE
SL-16 R/B 2.7 06:00:47 10° NW 06:05:54 36° WSW 06:11:00 10° SSW
Radarsat Rocket 4.1 05:59:37 10° NNE 06:06:15 76° WNW 06:12:13 10° SSW
Cosmos 972 Rocket 4.3 06:01:15 10° SSW 06:06:27 54° WNW 06:12:18 10° N
Cosmos 1812 Rocket 3.5 06:02:51 10° N 06:07:17 74° W 06:11:44 10° S
OAO 2 Rocket 3.5 06:03:56 10° WSW 06:09:15 80° SSE 06:14:35 10° E
Cosmos 1066 Rocket 4.2 06:05:39 10° SSW 06:11:13 74° W 06:16:58 10° N
